This demonstration page uses our WeatherBlox Daily Observations layout. Learn more.

Left ArrowRight Arrow

38.89511, -77.03637

Hourly Observations for May 21, 2019

Temp ( °F °C ) Dew Point ( °F °C ) Humidity (%) Winds ( mph kmh ) Pressure ( in mb ) Visibility ( mi km ) Precip ( " mm )
12:52 am 00:52 Mostly Clear 73 22.8 52 11.1 48 48 NNW 18 30 29.88 1012 10 16 0.00 0.00
1:52 am 01:52 Clear 70 21.1 52 11.1 53 53 N 12 19 29.89 1012 10 16 0.00 0.00
2:52 am 02:52 Clear 69 20.6 50 10 51 51 NNW 16 26 29.91 1013 10 16 0.00 0.00
3:52 am 03:52 Clear 66 18.9 49 9.4 54 54 NNW 16 26 29.93 1014 10 16 0.00 0.00
4:52 am 04:52 Mostly Clear 65 18.3 48 8.9 54 54 NNW 13 20 29.94 1014 10 16 0.00 0.00
5:52 am 05:52 Mostly Sunny 63 17.2 48 8.9 58 58 NNW 12 19 29.97 1015 10 16 0.00 0.00
6:52 am 06:52 Mostly Sunny 63 17.2 47 8.3 56 56 N 16 26 30.00 1016 10 16 0.00 0.00
7:52 am 07:52 Mostly Sunny 63 17.2 45 7.2 52 52 NNW 15 24 30.02 1017 10 16 0.00 0.00
9:52 am 09:52 Mostly Cloudy 64 17.8 44 6.7 48 48 NNW 15 24 30.05 1018 10 16 0.00 0.00
10:52 am 10:52 Mostly Cloudy 65 18.3 45 7.2 49 49 NNW 16 26 30.05 1018 10 16 0.00 0.00
11:52 am 11:52 Mostly Cloudy 66 18.9 45 7.2 47 47 N 10 17 30.06 1018 10 16 0.00 0.00
12:52 pm 12:52 Mostly Cloudy 68 20 45 7.2 44 44 NW 8 13 30.06 1018 10 16 0.00 0.00
2:52 pm 14:52 Partly Cloudy 70 21.1 44 6.7 39 39 WNW 13 20 30.04 1017 10 16 0.00 0.00
3:52 pm 15:52 Partly Cloudy 71 21.7 44 6.7 38 38 NW 13 20 30.04 1017 10 16 0.00 0.00
4:52 pm 16:52 Partly Cloudy 71 21.7 43 6.1 36 36 NNW 15 24 30.04 1017 10 16 0.00 0.00
5:52 pm 17:52 Mostly Cloudy 72 22.2 44 6.7 37 37 NW 10 17 30.05 1018 10 16 0.00 0.00
6:52 pm 18:52 Mostly Cloudy 70 21.1 42 5.6 37 37 NW 12 19 30.06 1018 10 16 0.00 0.00
7:52 pm 19:52 Mostly Cloudy 69 20.6 41 5 36 36 NW 13 20 30.07 1018 10 16 0.00 0.00
8:52 pm 20:52 Cloudy 68 20 42 5.6 39 39 N 13 20 30.09 1019 10 16 0.00 0.00
9:52 pm 21:52 Mostly Cloudy 65 18.3 44 6.7 47 47 N 8 13 30.11 1020 10 16 0.00 0.00
10:52 pm 22:52 Mostly Cloudy 64 17.8 44 6.7 48 48 NNW 7 11 30.12 1020 10 16 0.00 0.00
11:52 pm 23:52 Mostly Cloudy 63 17.2 45 7.2 52 52 NNW 6 9 30.13 1020 10 16 0.00 0.00

Powered by AerisWeather